TimeEDT,TemperatureF,Dew PointF,Humidity,Sea Level PressureIn,VisibilityMPH,Wind Direction,Wind SpeedMPH,Gust SpeedMPH,PrecipitationIn,Events,Conditions,WindDirDegrees,DateUTC
12:56 AM,45.0,37.9,76,30.29,10.0,NNE,9.2,-,N/A,,Clear,20,2011-11-02 04:56:00
1:56 AM,45.0,37.9,76,30.28,10.0,NNE,8.1,-,N/A,,Clear,30,2011-11-02 05:56:00
2:56 AM,45.0,37.9,76,30.30,10.0,NNE,5.8,-,N/A,,Clear,30,2011-11-02 06:56:00
3:56 AM,43.0,37.9,82,30.31,10.0,NNE,6.9,-,N/A,,Clear,30,2011-11-02 07:56:00
4:56 AM,43.0,37.0,80,30.34,10.0,NNE,5.8,-,N/A,,Clear,30,2011-11-02 08:56:00
5:56 AM,42.1,37.0,82,30.35,10.0,NNE,4.6,-,N/A,,Scattered Clouds,30,2011-11-02 09:56:00
6:56 AM,41.0,37.0,86,30.35,10.0,NE,3.5,-,N/A,,Clear,50,2011-11-02 10:56:00
7:56 AM,44.6,39.2,81,30.36,10.0,NNE,5.8,-,N/A,,Clear,30,2011-11-02 11:56:00
8:56 AM,48.9,39.0,69,30.38,10.0,NNE,12.7,-,N/A,,Clear,20,2011-11-02 12:56:00
1:56 PM,53.1,41.0,64,30.28,10.0,NNE,11.5,-,N/A,,Clear,30,2011-11-02 17:56:00
2:56 PM,54.0,41.0,62,30.27,10.0,NNE,9.2,-,N/A,,Clear,30,2011-11-02 18:56:00
3:56 PM,53.1,39.9,61,30.27,10.0,North,8.1,-,N/A,,Clear,360,2011-11-02 19:56:00
4:56 PM,51.1,39.0,63,30.26,10.0,NE,4.6,-,N/A,,Clear,40,2011-11-02 20:56:00
5:56 PM,42.8,37.4,81,30.26,10.0,Calm,Calm,-,N/A,,Clear,0,2011-11-02 21:56:00
6:56 PM,39.0,36.0,89,30.27,10.0,Calm,Calm,-,N/A,,Clear,0,2011-11-02 22:56:00
7:56 PM,36.0,34.0,93,30.26,10.0,Calm,Calm,-,N/A,,Clear,0,2011-11-02 23:56:00
8:56 PM,35.1,33.1,92,30.26,10.0,Calm,Calm,-,N/A,,Clear,0,2011-11-03 00:56:00
9:56 PM,33.1,30.9,92,30.25,10.0,Calm,Calm,-,N/A,,Clear,0,2011-11-03 01:56:00
10:56 PM,32.0,30.0,92,30.23,10.0,Calm,Calm,-,N/A,,Clear,0,2011-11-03 02:56:00
11:56 PM,30.2,28.4,93,30.21,10.0,Calm,Calm,-,N/A,,Clear,0,2011-11-03 03:56:00